Chippewa, MI

7:31 PM EDT on May 22, 2017 (GMT -0400)
Chippewa County International

Weather History for KCIU - February, 2013

Change the Weather History Date:

Monday, February 18, 2013

  Actual Average Record
Temperature  
Mean Temperature 20 °F -  
Max Temperature 32 °F 29 °F 48 °F (2017)
Min Temperature 10 °F 5 °F -34 °F (1979)
Degree Days  
Heating Degree Days 45    
Moisture  
Dew Point 19 °F    
Average Humidity 85    
Maximum Humidity 100    
Minimum Humidity 74    
Precipitation  
Precipitation 0.01 in - - ()
Sea Level Pressure  
Sea Level Pressure 29.80 in    
Wind  
Wind Speed 15 mph (SE)    
Max Wind Speed 28 mph    
Max Gust Speed 34 mph    
Visibility 10 miles    
Events      
Averages and records for this station are not official NWS values.
T = Trace of Precipitation, MM = Missing Value Source: NWS Daily Summary

Daily Weather History Graph

Daily Weather History Graph

Search for Another Location

Airport or City:

Trip Planner

Search our weather history database for the weather conditions in past years. The results will help you decide how hot, cold, wet, or windy it might be!

Date:

Astronomy

Feb. 18, 2013 Rise Set
Actual Time 7:35 AM EST 6:08 PM EST
Civil Twilight 7:05 AM EST 6:39 PM EST
Nautical Twilight 6:30 AM EST 7:14 PM EST
Astronomical Twilight 5:55 AM EST 7:49 PM EST
Moon 11:43 AM EST (2/18) 2:24 AM EST (2/18)
Length of Visible Light 11h 34m
Length of Day
10h 32m
First Quarter, 58% of the Moon is Illuminated
Feb 18
First Quarter
Feb 25
Full
Mar 4
Last Quarter
Mar 11
New
Mar 19
First Quarter

Hourly Weather History & Observations

Time (EST) Temp. Windchill Dew Point Humidity Pressure Visibility Wind Dir Wind Speed Gust Speed Precip Events Conditions
12:15 AM 10.4 °F -3.3 °F 8.6 °F 92% 30.06 in 10.0 mi SE 10.4 mph - N/A   Overcast
12:35 AM 12.2 °F -1.8 °F 8.6 °F 85% 30.06 in 10.0 mi SE 11.5 mph - N/A   Overcast
12:55 AM 12.2 °F -1.8 °F 8.6 °F 85% 30.05 in 10.0 mi SE 11.5 mph - N/A   Overcast
1:15 AM 12.2 °F -1.0 °F 8.6 °F 85% 30.06 in 10.0 mi SE 10.4 mph - N/A   Overcast
1:35 AM 12.2 °F -1.0 °F 8.6 °F 85% 30.06 in 10.0 mi SE 10.4 mph - N/A   Overcast
1:55 AM 12.2 °F -0.2 °F 10.4 °F 92% 30.05 in 10.0 mi SSE 9.2 mph - N/A   Overcast
2:15 AM 14.0 °F 2.0 °F 10.4 °F 86% 30.05 in 10.0 mi SSE 9.2 mph - N/A   Overcast
2:35 AM 14.0 °F 1.2 °F 10.4 °F 86% 30.05 in 10.0 mi SE 10.4 mph - N/A   Overcast
2:55 AM 14.0 °F 1.2 °F 10.4 °F 86% 30.04 in 10.0 mi SE 10.4 mph - N/A   Overcast
3:15 AM 12.2 °F -1.0 °F 8.6 °F 85% 30.04 in 10.0 mi SE 10.4 mph - N/A   Overcast
3:35 AM 12.2 °F -1.0 °F 10.4 °F 92% 30.04 in 10.0 mi SSE 10.4 mph - N/A   Overcast
3:55 AM 12.2 °F -1.0 °F 10.4 °F 92% 30.02 in 10.0 mi SE 10.4 mph - N/A   Overcast
4:15 AM 12.2 °F -1.0 °F 10.4 °F 92% 30.01 in 10.0 mi SE 10.4 mph - N/A   Mostly Cloudy
4:35 AM 12.2 °F -1.8 °F 10.4 °F 92% 30.01 in 10.0 mi SSE 11.5 mph - N/A   Mostly Cloudy
4:55 AM 14.0 °F 1.2 °F 10.4 °F 86% 30.01 in 10.0 mi SSE 10.4 mph - N/A   Overcast
5:15 AM 14.0 °F 1.2 °F 10.4 °F 86% 30.00 in 10.0 mi SE 10.4 mph - N/A   Overcast
5:35 AM 14.0 °F 1.2 °F 10.4 °F 86% 29.99 in 10.0 mi SE 10.4 mph - N/A   Overcast
5:55 AM 14.0 °F 0.5 °F 10.4 °F 86% 29.98 in 10.0 mi SE 11.5 mph - N/A   Scattered Clouds
6:15 AM 14.0 °F -0.8 °F 12.2 °F 93% 29.96 in 10.0 mi SE 13.8 mph - N/A   Mostly Cloudy
6:35 AM 15.8 °F 2.7 °F 12.2 °F 86% 29.95 in 10.0 mi SE 11.5 mph - N/A   Overcast
6:55 AM 17.6 °F 5.7 °F 12.2 °F 79% 29.94 in 10.0 mi SSE 10.4 mph - N/A   Overcast
7:15 AM 17.6 °F 5.7 °F 12.2 °F 79% 29.94 in 10.0 mi SE 10.4 mph - N/A   Overcast
7:35 AM 17.6 °F 2.7 °F 14.0 °F 86% 29.92 in 10.0 mi SE 16.1 mph - N/A   Overcast
7:55 AM 17.6 °F 2.7 °F 15.8 °F 93% 29.91 in 10.0 mi SE 16.1 mph - N/A   Overcast
8:15 AM 19.4 °F 4.1 °F 15.8 °F 86% 29.90 in 10.0 mi ESE 18.4 mph - N/A   Overcast
8:35 AM 19.4 °F 5.5 °F 15.8 °F 86% 29.90 in 10.0 mi ESE 15.0 mph 20.7 mph N/A   Overcast
8:55 AM 19.4 °F 6.6 °F 15.8 °F 86% 29.88 in 10.0 mi ESE 12.7 mph - N/A   Overcast
9:15 AM 19.4 °F 4.1 °F 17.6 °F 93% 29.87 in 10.0 mi ESE 18.4 mph 23.0 mph N/A   Overcast
9:35 AM 21.2 °F 6.4 °F 17.6 °F 86% 29.88 in 10.0 mi SE 18.4 mph - N/A   Overcast
9:55 AM 23.0 °F 9.2 °F 17.6 °F 80% 29.86 in 6.0 mi ESE 17.3 mph 25.3 mph N/A   Mostly Cloudy
10:15 AM 23.0 °F 9.2 °F 19.4 °F 86% 29.86 in 7.0 mi ESE 17.3 mph - N/A   Overcast
10:35 AM 23.0 °F 8.3 °F 19.4 °F 86% 29.85 in 10.0 mi ESE 19.6 mph 25.3 mph N/A   Overcast
10:55 AM 24.8 °F 9.6 °F 19.4 °F 80% 29.83 in 9.0 mi ESE 23.0 mph 26.5 mph N/A   Overcast
11:15 AM 24.8 °F 9.6 °F 21.2 °F 86% 29.82 in 10.0 mi ESE 23.0 mph 29.9 mph N/A   Overcast
11:35 AM 24.8 °F 9.6 °F 21.2 °F 86% 29.81 in 10.0 mi SE 23.0 mph 28.8 mph N/A   Overcast
11:55 AM 24.8 °F 11.1 °F 19.4 °F 80% 29.79 in 10.0 mi SE 18.4 mph 29.9 mph N/A   Overcast
12:15 PM 26.6 °F 12.0 °F 19.4 °F 74% 29.78 in 10.0 mi ESE 23.0 mph 28.8 mph N/A   Overcast
12:35 PM 28.4 °F 14.7 °F 21.2 °F 74% 29.78 in 10.0 mi SE 21.9 mph 26.5 mph N/A   Overcast
12:55 PM 28.4 °F 15.4 °F 21.2 °F 74% 29.77 in 10.0 mi SE 19.6 mph 25.3 mph N/A   Overcast
1:15 PM 28.4 °F 15.1 °F 21.2 °F 74% 29.75 in 10.0 mi SE 20.7 mph 29.9 mph N/A   Scattered Clouds
1:35 PM 28.4 °F 14.4 °F 23.0 °F 80% 29.74 in 10.0 mi SE 23.0 mph - N/A   Clear
1:55 PM 30.2 °F 16.8 °F 24.8 °F 80% 29.73 in 10.0 mi SE 23.0 mph 32.2 mph N/A   Clear
2:15 PM 30.2 °F 16.8 °F 24.8 °F 80% 29.71 in 10.0 mi SE 23.0 mph 31.1 mph N/A   Clear
2:35 PM 30.2 °F 17.1 °F 23.0 °F 75% 29.71 in 10.0 mi SE 21.9 mph 28.8 mph N/A   Partly Cloudy
2:55 PM 30.2 °F 15.9 °F 23.0 °F 75% 29.70 in 10.0 mi SE 26.5 mph 32.2 mph N/A   Partly Cloudy
3:15 PM 30.2 °F 15.9 °F 23.0 °F 75% 29.68 in 10.0 mi SE 26.5 mph 33.4 mph N/A   Clear
3:35 PM 30.2 °F 15.7 °F 23.0 °F 75% 29.68 in 10.0 mi ESE 27.6 mph 32.2 mph N/A   Clear
3:55 PM 30.2 °F 16.8 °F 23.0 °F 75% 29.67 in 10.0 mi ESE 23.0 mph 31.1 mph N/A   Clear
4:15 PM 30.2 °F 16.2 °F 23.0 °F 75% 29.67 in 10.0 mi ESE 25.3 mph 32.2 mph N/A   Clear
4:35 PM 30.2 °F 17.1 °F 23.0 °F 75% 29.66 in 10.0 mi SE 21.9 mph 34.5 mph N/A   Clear
4:55 PM 30.2 °F 17.1 °F 23.0 °F 75% 29.66 in 10.0 mi ESE 21.9 mph 26.5 mph N/A   Mostly Cloudy
5:15 PM 30.2 °F 16.5 °F 24.8 °F 80% 29.65 in 10.0 mi SE 24.2 mph 29.9 mph N/A   Scattered Clouds
5:35 PM 30.2 °F 17.1 °F 24.8 °F 80% 29.65 in 10.0 mi ESE 21.9 mph 28.8 mph N/A   Mostly Cloudy
5:55 PM 30.2 °F 17.4 °F 24.8 °F 80% 29.65 in 10.0 mi SE 20.7 mph 31.1 mph N/A   Overcast
6:35 PM 30.2 °F 17.4 °F 24.8 °F 80% 29.65 in 10.0 mi ESE 20.7 mph 27.6 mph N/A   Overcast
6:55 PM 30.2 °F 18.1 °F 24.8 °F 80% 29.65 in 10.0 mi ESE 18.4 mph 27.6 mph N/A   Overcast
7:15 PM 30.2 °F 17.4 °F 24.8 °F 80% 29.63 in 10.0 mi ESE 20.7 mph 27.6 mph N/A   Overcast
7:35 PM 30.2 °F 17.4 °F 24.8 °F 80% 29.62 in 10.0 mi ESE 20.7 mph 27.6 mph N/A   Overcast
7:55 PM 30.2 °F 17.8 °F 26.6 °F 86% 29.61 in 10.0 mi ESE 19.6 mph 24.2 mph N/A   Overcast
8:15 PM 30.2 °F 17.4 °F 26.6 °F 86% 29.60 in 10.0 mi ESE 20.7 mph - N/A   Overcast
8:35 PM 30.2 °F 18.1 °F 26.6 °F 86% 29.58 in 10.0 mi ESE 18.4 mph - N/A   Overcast
8:55 PM 30.2 °F 17.8 °F 26.6 °F 86% 29.57 in 10.0 mi ESE 19.6 mph - N/A   Overcast
9:15 PM 30.2 °F 17.4 °F 26.6 °F 86% 29.57 in 10.0 mi ESE 20.7 mph 29.9 mph N/A   Overcast
9:35 PM 30.2 °F 16.8 °F 26.6 °F 86% 29.55 in 10.0 mi ESE 23.0 mph 28.8 mph N/A   Overcast
9:55 PM 30.2 °F 17.8 °F 28.4 °F 93% 29.55 in 10.0 mi ESE 19.6 mph 27.6 mph N/A   Overcast
10:15 PM 30.2 °F 18.1 °F 28.4 °F 93% 29.54 in 6.0 mi ESE 18.4 mph - N/A   Overcast
10:35 PM 30.2 °F 18.1 °F 28.4 °F 93% 29.53 in 6.0 mi ESE 18.4 mph - N/A   Overcast
10:55 PM 30.2 °F 17.8 °F 30.2 °F 100% 29.51 in 8.0 mi ESE 19.6 mph 26.5 mph N/A   Overcast
11:15 PM 30.2 °F 18.9 °F 30.2 °F 100% 29.50 in 7.0 mi ESE 16.1 mph - N/A   Overcast
11:35 PM 30.2 °F 19.8 °F 28.4 °F 93% 29.49 in 5.0 mi ESE 13.8 mph - N/A   Overcast
11:55 PM 30.2 °F 19.8 °F 30.2 °F 100% 29.48 in 4.0 mi ESE 13.8 mph - 0.01 in   Overcast